Fairbanks, AK

2:40 AM AKDT on June 18, 2019 (GMT -0800)
Fairbanks International

Weather History for PAFA - January, 1975

Change the Weather History Date:

Friday, January 24, 1975

  Actual Average Record
Temperature  
Mean Temperature -3 °F -8 °F  
Max Temperature 8 °F 1 °F 46 °F (1977)
Min Temperature -14 °F -17 °F -60 °F (1911)
Degree Days  
Heating Degree Days 68 73  
Month to date heating degree days 1756  
Since 1 July heating degree days 8028  
Cooling Degree Days 0 0  
Month to date cooling degree days 0  
Year to date cooling degree days 0  
Moisture  
Dew Point -15 °F    
Average Humidity 60    
Maximum Humidity 70    
Minimum Humidity 50    
Precipitation  
Precipitation 0.01 in 0.02 in 0.27 in (1937)
Month to date precipitation 0.46  
Year to date precipitation 0.46  
Snow  
Snow 0.00 in 0.30 in 3.00 in (1937)
Month to date snowfall 8.1  
Since 1 July snowfall 46.0  
Snow Depth -    
Sea Level Pressure  
Sea Level Pressure 30.01 in    
Wind  
Wind Speed 1 mph (NNE)    
Max Wind Speed 5 mph    
Max Gust Speed -    
Visibility 7 miles    
Events Fog , Snow    
T = Trace of Precipitation, MM = Missing Value Source: NWS Daily Summary

Daily Weather History Graph

Daily Weather History Graph

Search for Another Location

Airport or City:

Astronomy

Jan. 24, 1975 Rise Set
Actual Time 9:02 AM AHST 3:05 PM AHST
Civil Twilight 7:58 AM AHST 4:09 PM AHST
Nautical Twilight 6:55 AM AHST 5:12 PM AHST
Astronomical Twilight 5:57 AM AHST 6:10 PM AHST
Moon 11:31 AM AHST (1/24) 7:06 AM AHST (1/24)
Length of Visible Light 8h 10m
Length of Day
6h 02m
Waxing Gibbous, 90% of the Moon is Illuminated
Jan 24
Waxing Gibbous
Jan 27
Full
Feb 2
Last Quarter
Feb 10
New
Feb 18
First Quarter

Hourly Weather History & Observations

Time (AHST) Temp. Windchill Dew Point Humidity Pressure Visibility Wind Dir Wind Speed Gust Speed Precip Events Conditions
12:00 AM -11.9 °F - -23.1 °F 58% 29.75 in 15.0 mi Calm Calm - N/A   Clear
1:00 AM -13.0 °F - -26.0 °F 53% 29.76 in 15.0 mi Calm Calm - N/A   Clear
2:00 AM -11.9 °F - -24.0 °F 55% 29.79 in 15.0 mi Calm Calm - N/A   Scattered Clouds
3:00 AM -11.0 °F - -20.9 °F 62% 29.81 in 7.0 mi Calm Calm - N/A   Ice Crystals
4:00 AM -11.0 °F - -23.1 °F 55% 29.83 in 15.0 mi Calm Calm - N/A   Scattered Clouds
5:00 AM -11.9 °F - -25.1 °F 52% 29.85 in 15.0 mi Calm Calm - N/A   Scattered Clouds
6:00 AM -11.9 °F -21.5 °F -25.1 °F 52% 29.87 in 15.0 mi North 3.5 mph - N/A   Scattered Clouds
7:00 AM -14.1 °F -23.9 °F -26.0 °F 55% 29.90 in 30.0 mi East 3.5 mph - N/A   Scattered Clouds
8:00 AM -14.1 °F -23.9 °F -27.0 °F 52% 29.94 in 40.0 mi NE 3.5 mph - N/A   Scattered Clouds
8:33 AM - - - N/A% 29.91 in 1.0 mi ENE 4.6 mph - N/A   Mostly Cloudy
9:00 AM -11.9 °F -21.5 °F -20.0 °F 67% 29.98 in 5.0 mi NNE 3.5 mph - N/A Fog Fog
9:38 AM - - - N/A% 29.94 in 6.0 mi Calm Calm - N/A   Unknown
10:00 AM -9.0 °F -18.2 °F -20.0 °F 59% 30.01 in 6.0 mi NNE 3.5 mph - N/A Snow Light Snow
11:00 AM - - - N/A% 30.04 in 7.0 mi Calm Calm - N/A   Unknown
11:29 AM - - - N/A% 29.99 in 7.0 mi Calm Calm - N/A   Unknown
12:00 PM -2.0 °F -10.1 °F -13.0 °F 60% 30.06 in 7.0 mi NNW 3.5 mph - N/A Snow Light Snow
12:37 PM - - - N/A% 30.02 in 2.0 mi North 3.5 mph - N/A   Unknown
1:00 PM -0.9 °F -8.9 °F -9.9 °F 66% 30.09 in 2.0 mi NW 3.5 mph - N/A Snow Light Snow
2:00 PM 1.0 °F - -8.0 °F 66% 30.11 in 2.0 mi Calm Calm - N/A Snow Light Snow
2:16 PM - - - N/A% 30.06 in 3.0 mi Calm Calm - N/A   Unknown
3:00 PM 1.0 °F - -11.0 °F 57% 30.13 in 7.0 mi Calm Calm - N/A Snow Light Snow
4:00 PM 3.0 °F - -7.1 °F 63% 30.14 in 6.0 mi Calm Calm - N/A Snow Light Snow
5:00 PM 3.0 °F -6.4 °F -5.1 °F 69% 30.17 in 5.0 mi NNW 4.6 mph - N/A Snow Light Snow
6:00 PM 3.9 °F -3.4 °F -11.0 °F 50% 30.17 in 5.0 mi NW 3.5 mph - N/A Snow Light Snow
7:00 PM 5.0 °F -2.1 °F -2.9 °F 70% 30.19 in 5.0 mi NE 3.5 mph - N/A Snow Light Snow
8:00 PM 6.1 °F -0.9 °F -2.0 °F 69% 30.19 in 6.0 mi North 3.5 mph - 0.01 in Snow Light Snow
9:00 PM 7.0 °F 0.1 °F -2.0 °F 67% 30.20 in 6.0 mi North 3.5 mph - N/A Snow Light Snow
10:00 PM 8.1 °F -0.5 °F -0.0 °F 70% 30.22 in 6.0 mi ENE 4.6 mph - N/A Snow Light Snow
11:00 PM 7.0 °F 0.1 °F -5.1 °F 58% 30.23 in 6.0 mi South 3.5 mph - N/A Snow Light Snow